Wind_Speed
16 16 16 16 15 15 16 15 15 15 15 15 15 15 15 15 14 14 14 14 14 13 12 12 11 11 11 10 10 10 10 10 9 9 8 8 7 7 7 6 6 6 5
16 17 17 17 17 17 17 17 17 17 16 16 16 16 16 16 16 15 15 15 15 14 14 13 13 12 12 12 12 11 11 11 10 9 9 8 8 8 8 8 7 6 7
17 18 18 18 18 18 18 18 18 18 18 18 18 17 17 17 17 16 16 15 15 15 15 14 14 13 13 13 12 12 11 11 11 10 10 9 9 9 9 9 8 8 8
19 19 19 19 19 19 19 19 19 19 19 18 18 18 18 17 17 16 16 15 15 15 15 14 14 14 14 14 13 13 12 12 12 12 11 11 10 10 10 9 9 9 9
21 21 21 21 21 20 20 20 20 20 20 19 19 19 19 18 18 17 17 16 16 15 14 14 14 14 14 14 14 14 13 13 12 12 12 12 12 12 11 11 10 10 10
23 22 23 22 22 22 21 21 21 21 20 20 20 20 19 19 18 18 17 17 16 15 15 14 14 14 14 14 14 14 14 13 13 13 13 13 13 13 12 12 12 12 12
24 24 24 24 24 23 23 22 22 22 22 22 21 20 20 19 19 19 18 18 17 17 16 15 15 15 14 15 15 15 14 15 15 14 14 14 14 14 14 14 14 14 14
26 26 25 25 25 24 24 23 23 22 22 22 22 22 21 21 20 20 19 19 18 18 18 17 17 16 16 16 16 15 15 15 16 15 14 14 14 15 15 15 15 15 15
28 27 27 26 26 26 25 25 24 24 23 23 23 23 23 22 22 21 21 20 19 19 19 18 18 18 18 17 17 17 16 16 17 17 17 16 16 16 16 16 16 16 15
29 29 28 28 28 27 27 27 26 25 25 24 24 24 23 23 23 22 22 21 20 19 19 19 19 19 18 18 18 18 18 18 18 18 18 18 18 18 18 17 17 17 16
30 29 29 29 29 29 29 28 27 27 26 25 25 25 24 24 23 23 23 22 22 21 21 20 20 20 19 19 19 19 19 19 19 19 20 20 20 20 20 19 19 19 19
30 30 30 29 29 30 30 30 29 29 28 27 27 26 26 25 24 24 24 23 23 22 22 21 21 20 20 20 20 20 20 20 20 20 21 21 21 21 21 21 21 21 21
31 31 31 30 30 30 31 31 30 30 30 29 29 28 27 27 26 25 25 24 24 23 23 22 22 21 20 21 21 21 21 21 22 22 22 22 22 22 22 22 22 22 22
33 33 33 32 31 32 32 33 31 31 31 31 31 30 29 28 27 27 26 26 25 25 25 23 22 22 22 22 22 22 22 22 22 22 22 23 23 23 23 23 23 23 23
34 34 34 33 33 33 33 33 33 32 32 32 32 31 31 30 29 28 27 28 27 27 27 26 25 24 24 23 23 23 23 23 23 23 23 22 22 23 23 24 24 24 25
35 35 35 35 34 34 33 34 33 33 33 33 33 32 32 32 31 30 30 29 29 29 28 28 27 27 26 26 26 25 24 24 24 25 24 24 24 24 25 25 25 25 26
36 36 36 36 35 35 35 35 34 34 34 34 34 34 33 33 32 32 32 31 31 30 30 30 29 28 28 28 27 26 26 26 26 26 26 26 26 26 26 26 26 26 27
37 37 37 37 37 37 37 36 35 35 35 36 35 35 35 34 34 34 33 32 32 32 32 31 31 30 30 29 28 28 28 27 27 28 28 28 28 28 27 27 28 27 27
37 38 38 38 38 38 38 38 37 36 36 37 37 37 36 35 35 35 35 34 34 34 33 33 32 32 32 31 31 31 30 30 29 29 29 29 30 30 29 29 28 28 28
38 38 38 39 40 40 40 40 40 39 39 38 38 38 38 37 36 36 36 36 35 35 34 34 34 34 33 33 33 32 32 31 31 31 31 31 31 31 30 30 30 30 30
37 38 38 39 40 41 41 41 41 40 40 40 40 40 39 39 38 38 37 37 37 36 36 36 35 35 34 34 34 33 33 33 33 33 33 33 33 33 32 32 31 31 31
38 38 39 40 40 41 41 41 42 42 41 41 42 42 41 41 40 40 39 38 38 38 37 37 37 36 36 35 35 35 34 34 34 34 34 34 34 34 33 33 33 32 33
38 38 39 40 40 42 43 43 43 43 43 43 43 43 43 43 42 42 41 40 40 40 39 39 38 38 37 36 36 36 36 35 35 35 36 35 35 35 35 35 34 34 34
39 39 40 41 41 42 43 43 44 45 45 44 44 44 44 45 44 43 43 42 42 42 41 40 39 39 39 38 38 38 38 37 37 37 37 37 37 37 37 36 37 37 37
40 41 41 42 42 42 42 43 43 44 45 46 46 45 46 46 46 45 45 44 43 43 42 42 41 40 39 39 39 39 39 39 38 38 37 38 38 39 39 39 39 39 38
40 41 42 43 44 44 44 44 44 44 45 46 46 46 46 46 46 47 46 45 45 44 43 43 42 42 41 41 40 41 41 41 40 39 39 39 40 40 40 40 40 40 40
Wind_Direction
244 244 244 243 243 242 242 241 241 240 239 239 240 241 241 243 245 246 246 248 248 249 250 250 250 250 252 253 252 252 252 254 254 254 251 251 252 255 255 254 252 249 245
245 245 244 243 243 243 243 241 241 241 240 240 240 241 243 243 245 246 247 247 247 249 250 251 251 251 253 254 253 253 252 252 251 253 252 251 253 256 259 261 259 256 247
246 244 243 244 243 243 243 242 241 242 242 241 241 242 244 245 246 247 247 247 248 249 250 251 251 252 252 251 251 251 250 250 250 253 255 255 256 257 260 262 259 258 251
247 245 243 244 243 241 241 241 242 242 243 243 242 243 245 247 248 247 245 246 248 249 249 250 250 251 251 250 251 252 251 252 253 255 256 257 254 257 261 260 257 258 252
246 245 244 243 242 242 242 242 242 242 242 242 242 243 244 246 246 245 246 247 248 249 250 250 250 252 253 251 251 252 253 254 255 256 255 257 257 258 257 258 258 255 251
246 246 245 244 242 241 241 241 241 241 241 242 241 241 242 244 245 247 247 248 251 251 250 249 251 252 253 252 252 253 254 255 255 256 257 258 258 257 257 258 258 255 253
247 246 246 245 243 241 241 241 241 241 242 242 242 241 243 245 246 248 248 248 251 251 250 250 251 252 252 252 254 255 255 254 255 256 258 257 256 258 260 260 257 256 256
246 246 246 244 243 241 240 240 240 240 241 241 241 243 244 244 246 246 248 248 249 248 250 251 251 252 252 253 254 254 254 254 254 253 255 255 257 258 258 258 257 257 256
246 245 244 243 242 240 239 239 239 240 240 241 240 242 243 244 246 247 249 248 247 248 250 250 250 249 251 253 254 253 253 254 253 253 255 255 257 259 258 257 256 258 256
244 244 243 243 242 241 239 238 238 239 240 242 241 241 243 245 244 245 248 247 247 246 247 248 249 249 250 251 253 254 255 254 253 254 255 256 257 258 258 256 256 256 257
244 244 243 243 242 241 239 238 238 238 239 241 242 242 243 245 245 245 246 248 249 247 247 248 250 251 250 252 254 254 253 253 255 255 257 258 258 257 257 257 258 258 257
244 243 243 243 242 240 239 239 238 238 240 241 241 242 244 244 245 245 245 247 249 248 248 249 250 250 251 252 254 255 254 254 256 258 260 259 258 257 257 258 258 258 258
244 243 243 243 242 241 240 239 239 239 239 240 242 243 244 244 244 245 245 246 247 247 249 249 249 250 251 252 253 255 256 256 258 260 261 260 259 258 258 259 260 260 260
243 243 243 242 242 241 239 239 240 239 240 241 242 243 244 244 244 244 245 246 246 247 249 249 250 251 251 252 253 255 257 258 260 260 260 260 260 259 259 260 260 261 261
243 243 243 242 242 240 239 239 239 239 240 241 241 242 243 242 243 244 245 246 247 249 251 251 252 252 253 254 256 257 257 259 260 259 260 261 262 261 261 261 261 261 261
243 242 243 243 242 240 238 238 238 239 239 241 241 242 243 243 244 245 245 246 248 249 251 253 254 254 256 257 258 260 260 261 262 262 262 262 263 263 263 263 263 263 262
243 243 242 243 241 240 239 238 240 239 239 241 241 241 242 244 245 246 246 247 248 249 251 252 254 255 255 257 258 259 260 260 261 262 262 262 262 262 262 262 263 264 263
243 243 242 242 240 239 239 239 239 239 240 240 241 242 242 243 245 246 246 248 249 250 251 252 253 254 255 257 258 259 259 260 260 261 262 262 262 263 264 263 264 264 263
244 244 242 240 239 239 240 240 239 239 240 241 241 242 242 244 245 247 248 249 250 251 251 252 253 254 255 256 258 259 259 259 260 261 262 262 263 263 264 263 264 263 263
244 243 242 240 239 239 240 240 240 240 241 241 242 242 243 244 246 247 249 250 251 251 251 252 254 255 256 256 257 259 259 259 260 261 261 262 263 263 263 263 263 263 263
243 242 241 240 240 240 240 240 240 241 241 241 242 243 244 244 246 247 248 250 251 252 253 253 254 256 256 257 258 259 259 260 261 261 262 263 263 264 263 263 263 263 264
243 243 242 241 240 240 239 240 241 241 242 242 243 243 244 245 246 247 248 249 251 252 254 254 255 255 256 258 258 258 259 260 260 261 262 263 264 264 263 263 263 264 265
244 243 242 242 241 241 241 241 242 243 243 244 245 245 245 245 246 247 248 249 250 252 253 254 255 255 257 258 258 258 259 259 260 261 262 264 265 264 263 263 263 264 265
244 243 242 241 241 242 242 242 243 244 243 244 245 246 246 246 246 247 248 249 251 252 252 254 255 256 257 258 259 259 260 260 262 262 263 264 264 264 264 264 264 264 265
244 245 243 241 241 242 242 242 244 244 243 244 245 246 247 246 246 247 248 249 250 251 252 253 254 256 257 258 259 260 260 261 262 263 264 264 264 264 264 264 264 264 265
245 245 245 243 242 242 243 243 244 245 245 245 245 247 248 247 246 247 248 249 249 251 253 254 255 256 257 258 259 259 260 261 262 263 264 265 264 264 264 264 264 265 265
Height
5826 5826 5827 5828 5829 5830 5831 5832 5833 5834 5835 5836 5837 5838 5839 5840 5841 5842 5843 5844 5844 5845 5845 5846 5846 5847 5847 5848 5849 5849 5850 5850 5851 5851 5851 5852 5852 5853 5853 5853 5854 5854 5854
5822 5823 5824 5825 5826 5827 5828 5829 5830 5832 5833 5834 5835 5836 5837 5838 5839 5840 5841 5841 5842 5843 5843 5844 5844 5845 5846 5846 5847 5848 5848 5849 5849 5850 5850 5851 5851 5851 5852 5852 5853 5853 5853
5818 5820 5821 5822 5823 5824 5825 5826 5827 5829 5830 5831 5832 5834 5835 5836 5837 5838 5838 5839 5840 5840 5841 5842 5842 5843 5844 5845 5845 5846 5847 5847 5848 5848 5849 5849 5850 5850 5851 5851 5852 5852 5852
5814 5815 5817 5818 5819 5821 5822 5823 5824 5826 5827 5828 5829 5831 5832 5833 5834 5835 5836 5837 5837 5838 5839 5840 5841 5841 5842 5843 5843 5844 5845 5845 5846 5847 5847 5848 5848 5849 5849 5850 5850 5851 5851
5810 5811 5813 5814 5815 5817 5818 5819 5821 5822 5824 5825 5826 5828 5829 5831 5832 5832 5833 5834 5835 5836 5837 5837 5838 5839 5839 5840 5841 5842 5843 5843 5844 5845 5845 5846 5846 5847 5847 5848 5849 5849 5849
5805 5806 5808 5809 5811 5812 5814 5816 5817 5819 5820 5822 5823 5825 5826 5827 5828 5829 5830 5831 5832 5833 5834 5835 5836 5837 5837 5838 5839 5839 5840 5841 5842 5842 5843 5844 5844 5845 5845 5846 5846 5847 5847
5800 5801 5803 5805 5806 5808 5810 5811 5813 5815 5816 5818 5819 5821 5823 5824 5825 5826 5827 5828 5829 5830 5831 5832 5833 5834 5835 5835 5836 5837 5838 5838 5839 5840 5841 5841 5842 5842 5843 5843 5844 5845 5845
5795 5796 5798 5799 5801 5803 5805 5807 5809 5811 5812 5814 5816 5817 5819 5820 5822 5823 5824 5825 5826 5827 5828 5829 5830 5831 5832 5833 5833 5834 5835 5836 5837 5837 5838 5839 5839 5840 5840 5841 5841 5842 5842
5788 5790 5792 5794 5796 5798 5800 5802 5805 5807 5808 5810 5812 5814 5815 5817 5818 5819 5820 5822 5822 5823 5824 5826 5827 5827 5828 5829 5830 5831 5832 5833 5833 5834 5835 5836 5836 5836 5837 5838 5838 5838 5839
5782 5784 5786 5788 5790 5792 5795 5797 5799 5802 5804 5806 5808 5809 5811 5813 5814 5815 5816 5818 5819 5820 5821 5822 5823 5824 5825 5826 5827 5828 5828 5829 5830 5831 5831 5832 5832 5833 5833 5834 5834 5835 5836
5775 5778 5780 5782 5784 5786 5789 5791 5794 5796 5799 5801 5803 5805 5807 5808 5809 5811 5812 5814 5815 5816 5817 5818 5819 5820 5821 5822 5823 5824 5824 5825 5826 5827 5827 5828 5828 5829 5829 5830 5830 5831 5832
5768 5771 5773 5775 5777 5780 5783 5786 5788 5791 5793 5796 5798 5800 5802 5803 5805 5806 5808 5809 5811 5812 5813 5814 5815 5816 5817 5818 5819 5819 5820 5821 5822 5822 5823 5823 5824 5824 5825 5825 5826 5827 5828
5762 5764 5767 5769 5771 5774 5776 5779 5782 5785 5788 5790 5792 5795 5797 5798 5800 5802 5803 5805 5806 5807 5808 5809 5811 5812 5813 5814 5814 5815 5816 5816 5817 5818 5818 5818 5819 5819 5820 5820 5821 5822 5823
5754 5757 5760 5762 5764 5767 5770 5773 5776 5779 5782 5784 5786 5789 5791 5793 5794 5796 5798 5800 5801 5802 5804 5805 5806 5807 5808 5809 5810 5810 5811 5811 5812 5813 5813 5813 5813 5814 5814 5815 5816 5817 5818
5747 5750 5752 5755 5757 5760 5763 5766 5769 5772 5775 5778 5780 5782 5784 5787 5788 5790 5792 5794 5796 5797 5798 5799 5801 5802 5802 5803 5804 5805 5806 5806 5807 5807 5807 5808 5808 5809 5809 5810 5810 5811 5812
5740 5742 5745 5747 5750 5752 5756 5759 5762 5765 5768 5771 5773 5776 5778 5780 5782 5784 5786 5787 5789 5791 5792 5793 5795 5796 5797 5797 5798 5800 5801 5801 5801 5801 5802 5803 5803 5803 5804 5804 5805 5805 5806
5731 5734 5736 5739 5742 5745 5748 5752 5755 5758 5761 5763 5766 5769 5771 5773 5775 5777 5779 5781 5783 5784 5786 5787 5788 5790 5790 5791 5792 5793 5794 5795 5795 5796 5796 5797 5797 5798 5798 5798 5799 5799 5800
5723 5725 5728 5731 5734 5737 5740 5744 5747 5750 5753 5756 5759 5761 5763 5766 5768 5770 5772 5774 5775 5777 5779 5780 5782 5783 5784 5785 5786 5787 5788 5788 5789 5790 5790 5791 5791 5792 5792 5793 5793 5793 5793
5714 5716 5719 5722 5725 5729 5732 5735 5739 5742 5745 5748 5751 5753 5756 5758 5760 5762 5764 5766 5768 5770 5771 5773 5774 5776 5777 5778 5779 5780 5781 5781 5782 5783 5784 5784 5785 5785 5786 5786 5787 5787 5787
5705 5707 5710 5713 5716 5720 5723 5727 5730 5733 5736 5739 5742 5745 5748 5750 5752 5755 5757 5759 5760 5762 5764 5765 5767 5768 5769 5770 5771 5772 5773 5774 5775 5776 5777 5777 5778 5778 5779 5779 5780 5780 5780
5696 5698 5701 5704 5708 5711 5714 5718 5721 5724 5727 5730 5733 5736 5739 5742 5744 5746 5749 5751 5752 5754 5756 5757 5759 5760 5761 5763 5764 5764 5765 5766 5767 5768 5769 5770 5771 5771 5772 5772 5773 5773 5773
5687 5689 5692 5695 5699 5702 5705 5708 5712 5715 5718 5721 5724 5727 5730 5733 5735 5738 5740 5742 5744 5746 5747 5749 5750 5752 5753 5754 5756 5757 5758 5759 5759 5760 5761 5762 5763 5763 5764 5764 5765 5765 5765
5678 5681 5684 5686 5690 5692 5695 5699 5702 5705 5708 5711 5714 5717 5720 5723 5726 5728 5731 5733 5735 5737 5739 5740 5742 5743 5744 5746 5747 5748 5749 5751 5751 5752 5753 5754 5754 5755 5756 5756 5757 5757 5757
5668 5671 5674 5677 5680 5683 5685 5689 5692 5695 5698 5701 5704 5707 5710 5713 5715 5718 5721 5723 5725 5727 5729 5731 5732 5734 5735 5736 5737 5739 5740 5741 5743 5744 5744 5745 5745 5746 5747 5747 5748 5748 5748
5658 5661 5664 5666 5670 5672 5675 5678 5681 5684 5687 5691 5694 5696 5699 5702 5705 5707 5710 5713 5715 5717 5719 5721 5723 5724 5726 5727 5728 5729 5730 5731 5733 5734 5735 5735 5736 5737 5737 5738 5738 5739 5739
5648 5650 5653 5656 5659 5662 5665 5668 5671 5674 5677 5680 5683 5685 5688 5691 5694 5696 5699 5702 5704 5706 5708 5710 5712 5714 5715 5717 5718 5719 5720 5721 5723 5724 5725 5725 5726 5726 5727 5727 5728 5728 5729